Weather History for Crossville, TN

Change the Weather History Date:

Wednesday, November 7, 2012

  Actual Average Record
Temperature  
Mean Temperature 41 °F 51 °F  
Max Temperature 44 °F 61 °F 73 °F (1980)
Min Temperature 38 °F 40 °F 21 °F (1993)
Degree Days  
Heating Degree Days 24    
Month to date heating degree days 132  
Since 1 July heating degree days 498  
Cooling Degree Days 0    
Month to date cooling degree days 0  
Year to date cooling degree days 1156  
Moisture  
Dew Point 39 °F    
Average Humidity 91    
Maximum Humidity 100    
Minimum Humidity 82    
Precipitation  
Precipitation 0.33 in 0.14 in 1.66 in (1995)
Month to date precipitation 0.67 0.98  
Year to date precipitation 40.64 46.02  
Sea Level Pressure  
Sea Level Pressure 29.96 in    
Wind  
Wind Speed 3 mph (NW)    
Max Wind Speed 10 mph    
Max Gust Speed 14 mph    
Visibility 6 miles    
Events Rain    
T = Trace of Precipitation, MM = Missing Value Source: NWS Daily Summary

Daily Weather History Graph

Daily Weather History Graph

Search for Another Location

Airport:

Trip Planner

Search our weather history database for the weather conditions in past years. The results will help you decide how hot, cold, wet, or windy it might be!

Date:

Astronomy

Nov. 07, 2012 Rise Set
Actual Time 6:09 AM CST 4:38 PM CST
Civil Twilight 5:42 AM CST 5:05 PM CST
Nautical Twilight 5:11 AM CST 5:35 PM CST
Astronomical Twilight 4:41 AM CST 6:05 PM CST
Moon No Moon Rise 12:35 PM CST (11/7)
Length of Visible Light 11h 23m
Length of Day
10h 29m
Last Quarter, 43% of the Moon is Illuminated
Nov 7
Last Quarter
Nov 13
New
Nov 20
First Quarter
Nov 28
Full
Dec 6
Last Quarter

Hourly Weather History & Observations

Time (CST) Temp. Windchill Dew Point Humidity Pressure Visibility Wind Dir Wind Speed Gust Speed Precip Events Conditions
12:41 AM 41.0 °F 39.0 °F 39.2 °F 93% 29.90 in 5.0 mi WNW 3.5 mph - N/A   Overcast
12:53 AM 41.0 °F 39.0 °F 39.0 °F 93% 29.91 in 6.0 mi West 3.5 mph - N/A   Overcast
1:19 AM 41.0 °F - 39.2 °F 93% 29.89 in 5.0 mi Calm Calm - N/A   Overcast
1:53 AM 41.0 °F - 39.0 °F 93% 29.89 in 6.0 mi Calm Calm - 0.01 in   Overcast
2:21 AM 41.0 °F - 39.2 °F 93% 29.88 in 5.0 mi Calm Calm - N/A   Overcast
2:41 AM 41.0 °F - 39.2 °F 93% 29.88 in 5.0 mi Calm Calm - N/A   Overcast
2:53 AM 41.0 °F - 39.0 °F 93% 29.88 in 6.0 mi Calm Calm - N/A   Overcast
3:05 AM 41.0 °F - 39.2 °F 93% 29.88 in 7.0 mi Calm Calm - N/A   Overcast
3:53 AM 41.0 °F - 39.0 °F 93% 29.88 in 6.0 mi Calm Calm - N/A   Overcast
4:47 AM 41.0 °F - 39.2 °F 93% 29.87 in 5.0 mi Calm Calm - N/A   Overcast
4:48 AM 41.0 °F - 39.0 °F 93% 29.88 in 5.0 mi Calm Calm - N/A   Overcast
4:54 AM 41.0 °F - 39.2 °F 93% 29.87 in 5.0 mi Calm Calm - N/A   Overcast
5:53 AM 39.9 °F - 39.0 °F 97% 29.88 in 4.0 mi Calm Calm - N/A   Overcast
6:08 AM 41.0 °F - 39.2 °F 93% 29.88 in 4.0 mi Calm Calm - N/A   Overcast
6:53 AM 41.0 °F - 39.0 °F 93% 29.90 in 4.0 mi Calm Calm - N/A   Overcast
7:53 AM 42.1 °F - 39.0 °F 89% 29.91 in 6.0 mi Calm Calm - N/A   Overcast
8:00 AM 42.8 °F - 39.2 °F 87% 29.91 in 6.0 mi Calm Calm - N/A   Overcast
8:15 AM 42.8 °F - 39.2 °F 87% 29.91 in 7.0 mi Calm Calm - N/A   Overcast
8:53 AM 42.1 °F - 39.0 °F 89% 29.92 in 6.0 mi Calm Calm - N/A   Overcast
9:34 AM 42.8 °F - 39.2 °F 87% 29.92 in 2.5 mi Calm Calm - 0.00 in Rain Light Rain
9:48 AM 42.8 °F - 39.2 °F 87% 29.92 in 4.0 mi Calm Calm - 0.01 in   Overcast
9:53 AM 43.0 °F 41.3 °F 39.9 °F 89% 29.93 in 2.5 mi NW 3.5 mph - 0.01 in   Overcast
10:07 AM 42.8 °F 41.1 °F 39.2 °F 87% 29.92 in 3.0 mi West 3.5 mph - 0.01 in Rain Light Rain
10:17 AM 42.8 °F 40.1 °F 39.2 °F 87% 29.93 in 1.8 mi West 4.6 mph - 0.03 in Rain Rain
10:27 AM 42.8 °F 41.1 °F 39.2 °F 87% 29.93 in 2.0 mi WSW 3.5 mph - 0.05 in Rain Rain
10:37 AM 42.8 °F 41.1 °F 39.2 °F 87% 29.93 in 5.0 mi West 3.5 mph - 0.06 in Rain Light Rain
10:53 AM 42.1 °F - 39.9 °F 92% 29.94 in 3.0 mi Calm Calm - 0.08 in Rain Light Rain
11:35 AM 42.8 °F - 39.2 °F 87% 29.92 in 7.0 mi Calm Calm - 0.01 in   Overcast
11:46 AM 42.8 °F 41.1 °F 39.2 °F 87% 29.92 in 10.0 mi WNW 3.5 mph - 0.01 in   Overcast
11:53 AM 43.0 °F - 39.0 °F 86% 29.92 in 10.0 mi Calm Calm - 0.01 in   Overcast
12:18 PM 42.8 °F 40.1 °F 39.2 °F 87% 29.92 in 2.5 mi North 4.6 mph - 0.02 in Rain Rain
12:25 PM 42.8 °F 40.1 °F 39.2 °F 87% 29.92 in 1.8 mi North 4.6 mph - 0.04 in Rain Light Rain
12:43 PM 41.0 °F - 39.2 °F 93% 29.92 in 3.0 mi Calm Calm - 0.06 in Rain Light Rain
12:53 PM 42.1 °F 39.2 °F 39.0 °F 89% 29.93 in 5.0 mi WNW 4.6 mph - 0.06 in Rain Light Rain
1:01 PM 41.0 °F - 39.2 °F 93% 29.92 in 2.0 mi Calm Calm - 0.02 in Rain Light Rain
1:13 PM 42.8 °F - 39.2 °F 87% 29.92 in 4.0 mi Calm Calm - 0.03 in Rain Light Rain
1:27 PM 42.8 °F 41.1 °F 39.2 °F 87% 29.93 in 1.5 mi NW 3.5 mph - 0.07 in Rain Heavy Rain
1:30 PM 42.8 °F - 39.2 °F 87% 29.93 in 0.8 mi Calm Calm - 0.10 in Rain Heavy Rain
1:41 PM 41.0 °F 36.4 °F 37.4 °F 87% 29.93 in 2.0 mi NW 6.9 mph - 0.13 in Rain Light Rain
1:48 PM 41.0 °F 39.0 °F 37.4 °F 87% 29.93 in 3.0 mi NW 3.5 mph - 0.15 in Rain Rain
1:53 PM 41.0 °F 39.0 °F 37.9 °F 89% 29.94 in 2.5 mi Variable 3.5 mph - 0.16 in Rain Rain
2:04 PM 42.8 °F - 39.2 °F 87% 29.93 in 5.0 mi Calm Calm - 0.00 in Rain Light Rain
2:43 PM 42.8 °F 41.1 °F 39.2 °F 87% 29.94 in 10.0 mi North 3.5 mph - 0.00 in   Overcast
2:53 PM 43.0 °F 41.3 °F 39.9 °F 89% 29.96 in 10.0 mi Variable 3.5 mph - 0.00 in   Overcast
3:11 PM 42.8 °F 39.3 °F 39.2 °F 87% 29.95 in 10.0 mi North 5.8 mph - N/A   Overcast
3:18 PM 42.8 °F 41.1 °F 39.2 °F 87% 29.95 in 10.0 mi NNW 3.5 mph - N/A   Overcast
3:21 PM 44.6 °F 41.4 °F 39.2 °F 81% 29.96 in 10.0 mi NNW 5.8 mph - N/A   Overcast
3:53 PM 43.0 °F 40.3 °F 39.9 °F 89% 29.98 in 10.0 mi WNW 4.6 mph - N/A   Overcast
4:04 PM 42.8 °F 41.1 °F 39.2 °F 87% 29.97 in 10.0 mi North 3.5 mph - N/A   Overcast
4:31 PM 42.8 °F 38.0 °F 39.2 °F 87% 29.99 in 9.0 mi NNW 8.1 mph - N/A   Overcast
5:08 PM 42.8 °F 40.1 °F 39.2 °F 87% 30.01 in 9.0 mi NNW 4.6 mph - N/A   Overcast
5:19 PM 42.8 °F 40.1 °F 39.2 °F 87% 30.01 in 9.0 mi North 4.6 mph - N/A   Overcast
5:53 PM 42.1 °F 39.2 °F 39.0 °F 89% 30.04 in 8.0 mi NNW 4.6 mph - N/A   Overcast
6:53 PM 42.1 °F 38.4 °F 39.0 °F 89% 30.06 in 7.0 mi North 5.8 mph - N/A   Overcast
7:08 PM 42.8 °F 40.1 °F 39.2 °F 87% 30.05 in 7.0 mi NNW 4.6 mph - N/A   Overcast
7:18 PM 42.8 °F 40.1 °F 39.2 °F 87% 30.06 in 7.0 mi North 4.6 mph - N/A   Overcast
7:25 PM 42.8 °F 39.3 °F 39.2 °F 87% 30.06 in 6.0 mi North 5.8 mph - N/A   Overcast
7:39 PM 42.8 °F 41.1 °F 39.2 °F 87% 30.06 in 7.0 mi North 3.5 mph - N/A   Overcast
7:53 PM 42.1 °F 37.7 °F 37.9 °F 85% 30.08 in 8.0 mi NNW 6.9 mph - N/A   Overcast
8:53 PM 42.1 °F 39.2 °F 37.9 °F 85% 30.09 in 8.0 mi NW 4.6 mph - N/A   Overcast
9:18 PM 39.2 °F 37.0 °F 37.4 °F 93% 30.08 in 8.0 mi NW 3.5 mph - N/A   Scattered Clouds
9:53 PM 39.9 °F 37.8 °F 37.0 °F 89% 30.09 in 6.0 mi NNW 3.5 mph - N/A   Clear
10:14 PM 39.2 °F 35.0 °F 37.4 °F 93% 30.09 in 6.0 mi North 5.8 mph - N/A   Mostly Cloudy
10:37 PM 39.2 °F - 37.4 °F 93% 30.09 in 5.0 mi Calm Calm - N/A   Mostly Cloudy
10:44 PM 39.2 °F - 37.4 °F 93% 30.08 in 5.0 mi Calm Calm - N/A   Partly Cloudy
10:53 PM 39.0 °F 36.8 °F 36.0 °F 89% 30.10 in 5.0 mi WNW 3.5 mph - N/A   Partly Cloudy
11:16 PM 39.2 °F - 37.4 °F 93% 30.09 in 4.0 mi Calm Calm - N/A   Mostly Cloudy
11:46 PM 37.4 °F 34.9 °F 35.6 °F 93% 30.10 in 4.0 mi NNW 3.5 mph - N/A   Scattered Clouds
11:53 PM 37.9 °F 35.5 °F 36.0 °F 93% 30.11 in 4.0 mi NNW 3.5 mph - N/A   Mostly Cloudy